Regional Weather Roundup
Issued by NWS Sioux Falls, SD

Home | Current Version | Previous Version | Text Only | Print | Product List | Glossary On
Versions: 1 2 3 4 5 6 7 8 9 10 11 12 13 14 15 16 17 18 19 20 21 22 23 24 25 26 27 28 29 30 31 32 33 34 35 36 37 38 39 40 41 42 43 44 45 46 47 48 49 50
000
ASUS43 KFSD 310410
RWRFSD

WEATHER ROUNDUP FOR SE SOUTH DAKOTA/SW MINNESOTA/NW IOWA
NATIONAL WEATHER SERVICE SIOUX FALLS SD
1100 PM CDT SAT AUG 30 2014

NOTE: "FAIR" INDICATES FEW OR NO CLOUDS BELOW 12,000 FEET WITH NO
SIGNIFICANT WEATHER AND OR OBSTRUCTIONS TO VISIBILITY.


SDZ038>040-050-052>070-310500-
SOUTHEAST SOUTH DAKOTA

CITY           SKY/WX    TMP DP  RH WIND       PRES   REMARKS
CHAMBERLAIN    PTCLDY    66  63  91 SE12      29.73S
HURON          CLEAR     64  60  87 SE9       29.76S
MADISON        FAIR      61  61 100 SE8       29.83F
MITCHELL       CLEAR     65  61  87 SE12      29.78F
SIOUX FALLS    CLEAR     66  60  81 SE7       29.83F
WINNER         FAIR      74  65  73 S16G24    29.70F
YANKTON        CLEAR     64  63  94 E7        29.81S
$$

MNZ071-072-080-081-089-090-097-098-310500-
SOUTHWEST MINNESOTA

CITY           SKY/WX    TMP DP  RH WIND       PRES   REMARKS
FAIRMONT       MOCLDY    63  57  82 E5        29.88S
JACKSON        CLEAR     61  59  94 CALM      29.89R
LUVERNE        CLEAR     61  59  94 CALM      29.87S FOG
MARSHALL       CLEAR     63  59  88 SE10      29.83F
MONTEVIDEO     CLEAR     59  59 100 S6        29.84F FOG
PIPESTONE      CLEAR     63  59  88 S6        29.86S
REDWOOD FALLS  CLEAR     63  61  93 E6        29.85S
TRACY          CLEAR     63  62  96 CALM      29.86S
WINDOM         CLEAR     64  63  94 SE6       29.87S
WORTHINGTON    CLEAR     63  61  94 S7        29.88S
$$

IAZ001>003-012>014-020>022-031-032-NEZ013-014-SDZ071-310500-
NORTHWEST IOWA

CITY           SKY/WX    TMP DP  RH WIND       PRES   REMARKS
CHEROKEE       CLEAR     61  61  99 SE3       29.88S
DENISON        CLEAR     64  64 100 E5        29.87S
ESTHERVILLE    CLEAR     60  60 100 S7        29.88S
LE MARS        CLEAR     66  61  82 VRB7      29.85F
ORANGE CITY    CLEAR     64  59  82 SE3       29.87S
SHELDON        CLEAR     61  61 100 S6        29.86S
SIOUX CITY     CLEAR     66  62  87 SE9       29.84F
SPENCER        CLEAR     62  59  90 S6        29.89R
STORM LAKE     CLEAR     61 N/A N/A S7        29.90R
$$

ABBREVIATIONS USED IN REMARKS
   TC - TEMPERATURE IN CELSIUS
  WCI - WIND CHILL INDEX
   HX - HEAT INDEX
  VSB - VISIBILITY



USA.gov is the U.S. government's official web portal to all federal, state and local government web resources and services.